Regional Weather Roundup
Issued by NWS

Home | Current Version | Previous Version | Graphics & Text | Print | Product List | Glossary On
Versions: 1 2 3 4 5 6 7 8 9 10 11 12 13 14 15 16 17 18 19 20 21 22 23 24 25 26 27 28 29 30 31 32 33 34 35 36 37 38 39 40 41 42 43 44 45 46 47 48 49 50
000
ASUS43 KLOT 280402
RWRIL

ILLINOIS REGIONAL WEATHER ROUNDUP
NATIONAL WEATHER SERVICE CHICAGO/ROMEOVILLE IL
1100 PM CDT MON APR 27 2015

NOTE: "FAIR" INDICATES FEW OR NO CLOUDS BELOW 12,000 FEET WITH NO
SIGNIFICANT WEATHER AND/OR OBSTRUCTIONS TO VISIBILITY.

* THESE STATIONS ARE NOT UNDER NWS QUALITY CONTROL. THEY ALSO MAY NOT
  REPORT WEATHER SUCH AS PRECIPITATION OR FOG.

ILZ001-002-007-009-015-016-024-280500-
NORTHWEST ILLINOIS

CITY           SKY/WX    TMP DP  RH WIND       PRES   REMARKS
MOLINE         CLEAR     45  37  73 CALM      30.10S
STERLING*      FAIR      45  37  76 SE3       30.12R
$$

ILZ003-004-008-010-011-017-018-280500-
NORTH CENTRAL ILLINOIS

CITY           SKY/WX    TMP DP  RH WIND       PRES   REMARKS
ROCKFORD       CLEAR     46  35  65 SE3       30.14S
FREEPORT*      CLEAR     44  36  75 SE6       30.13R
$$

ILZ005-006-012>014-019>023-280500-
NORTHEAST ILLINOIS

CITY           SKY/WX    TMP DP  RH WIND       PRES   REMARKS
CHICAGO-OHARE  PTCLDY    42  33  70 NE6       30.12F
CHICAGO-MIDWAY CLEAR     45  33  63 E6        30.12F
AURORA         CLEAR     43  32  65 NE6       30.11F
WAUKEGAN       CLEAR     37  32  82 NW3       30.12F
DUPAGE AIRPORT CLEAR     40  32  73 N5        30.11F
WHEELING       CLEAR     40  33  76 CALM      30.14F
NORTHERLY ISL    N/A     41  34  76 MISG        N/A
$$

LMZ740>746-280500-
SOUTHERN LAKE MICHIGAN

STATION/POSITION SKY/WX   TEMP    WIND        PRES    VSBY  WAVE
                          AIR SEA DIR/SP/G                  HT/PER
                          (F)     (DEG/KT/KT) (MB)    (MI)  (FT/S)
HARRISON CRIB              41     350/  5/  6   N/A
BURNHAM HARBOR             42     350/  5/  9   N/A
CALUMET HARBOR             42      10/  5/  7   N/A
BURNS HARBOR               42     320/  5/  8 1020.7R
MICHIGAN CITY              43     240/  8/  9   N/A
MICHIGAN CITY 6N           41 45  300/  8/ 10   N/A           3/ 5
$$

ILZ025>027-034>036-040-047-049-050-058-095>099-280500-
WEST-CENTRAL ILLINOIS

CITY           SKY/WX    TMP DP  RH WIND       PRES   REMARKS
QUINCY         CLEAR     52  35  52 NE3       30.11R
$$

ILZ028>032-037-038-041>044-048-051>054-059>061-280500-
CENTRAL ILLINOIS

CITY           SKY/WX    TMP DP  RH WIND       PRES   REMARKS
DECATUR        CLEAR     44  36  73 NE5       30.11S
PEORIA         CLEAR     52  37  56 E8        30.12S
SPRINGFIELD    CLEAR     48  39  71 E7        30.11R
TAYLORVILLE    NOT AVBL
$$

ILZ033-039-045-046-055>057-062-063-280500-
EAST-CENTRAL ILLINOIS

CITY           SKY/WX    TMP DP  RH WIND       PRES   REMARKS
CHAMPAIGN      CLEAR     46  33  60 NE8       30.09F
MATTOON        CLEAR     45  36  70 N6        30.09F
$$

ILZ079-100>102-280500-
SOUTHWEST ILLINOIS

CITY           SKY/WX    TMP DP  RH WIND       PRES   REMARKS
BELLEVILLE     CLEAR     50  42  73 E5        30.08R
CAHOKIA*       CLEAR     50  40  68 E6        30.09R
SPARTA*        CLEAR     50  40  68 NE9       30.09S
$$

ILZ064>066-069>071-074>076-080>082-084>086-088>090-092>094-280500-
SOUTH-CENTRAL ILLINOIS

CITY           SKY/WX    TMP DP  RH WIND       PRES   REMARKS
CARBONDALE     PTCLDY    53  37  54 NE9       30.08R
MT. VERNON     CLEAR     46  34  61 CALM      30.10R
SALEM*         CLEAR     52  37  57 CALM      30.10R
$$

ILZ067-068-072-073-078-083-087-091-280500-
SOUTHEAST ILLINOIS

CITY           SKY/WX    TMP DP  RH WIND       PRES   REMARKS
LAWRENCEVILLE  CLEAR     49  37  63 N9        30.07F
HARRISBURG*    PTCLDY    52  39  61 N7        30.08S
ROBINSON*      CLEAR     46  37  71 N8        30.09F
$$

ABBREVIATIONS USED IN REMARKS
   TC - TEMPERATURE IN CELSIUS
  WCI - WIND CHILL INDEX
   HX - HEAT INDEX
  VSB - VISIBILITY
$$




USA.gov is the U.S. government's official web portal to all federal, state and local government web resources and services.